This demonstration page uses our WeatherBlox Daily Observations layout. Learn more.

Hourly Observations for February 7, 2020

Temp ( °F °C ) Dew Point ( °F °C ) Humidity (%) Winds ( mph kmh ) Pressure ( in mb ) Visibility ( mi km ) Precip ( " mm )
12:15 am 00:15 Cloudy 43 6 43 6 100 100 S 10 17 29.34 994 5 8.0467 0 0
12:35 am 00:35 Cloudy 43 6 43 6 100 100 S 8 13 29.33 993 4 6.43736 0 0
12:55 am 00:55 Cloudy 43 6 43 6 100 100 S 6 9 29.32 993 2.5 4.02335 0 0
1:15 am 01:15 Cloudy 43 6 43 6 100 100 S 9 15 29.28 992 2 3.21868 0 0
1:35 am 01:35 Cloudy 45 7 45 7 100 100 S 10 17 29.3 992 1.5 2.41401 0 0
1:55 am 01:55 Cloudy 45 7 45 7 100 100 SSE 10 17 29.26 991 1 1.60934 0 0
2:15 am 02:15 Cloudy 45 7 45 7 100 100 SW 5 7 29.25 991 1 1.60934 0 0
2:35 am 02:35 Cloudy 45 7 45 7 100 100 Calm 29.22 990 0.75 1.207005 0 0
2:55 am 02:55 Cloudy 45 7 45 7 100 100 S 6 9 29.22 990 0.5 0.80467 0 0
3:15 am 03:15 Cloudy 45 7 45 7 100 100 S 5 7 29.21 989 0.5 0.80467 0 0
3:35 am 03:35 Cloudy 45 7 45 7 100 100 S 6 9 29.19 988 0.25 0.402335 0 0
4:15 am 04:15 Cloudy 45 7 45 7 100 100 Calm 29.14 987 0.5 0.80467 0 0
4:35 am 04:35 Cloudy 45 7 45 7 100 100 Calm 29.13 986 0.5 0.80467 0 0
4:55 am 04:55 Cloudy 45 7 45 7 100 100 Calm 29.09 985 0.75 1.207005 0.02 0.508
5:15 am 05:15 Cloudy 45 7 45 7 100 100 Calm 29.07 984 1 1.60934 0 0
5:35 am 05:35 Cloudy 45 7 45 7 100 100 Calm 29.05 984 1 1.60934 0.01 0.254
5:55 am 05:55 Cloudy 45 7 45 7 100 100 ESE 5 7 29.02 983 1.25 2.011675 0.01 0.254
6:15 am 06:15 Cloudy 46 8 46 8 100 100 SE 7 11 29.01 982 0.75 1.207005 0.01 0.254
6:35 am 06:35 Cloudy 50 10 50 10 100 100 S 12 19 28.99 982 10 16.0934 0.02 0.508
6:55 am 06:55 Cloudy 50 10 50 10 100 100 S 15 24 28.97 981 7 11.26538 0.03 0.762
7:15 am 07:15 Cloudy 52 11 52 11 100 100 S 22 35 28.94 980 10 16.0934 0 0
7:55 am 07:55 Cloudy 43 6 43 6 100 100 NNW 15 24 29.02 983 4 6.43736 0.12 3.048
8:15 am 08:15 Cloudy 43 6 43 6 100 100 WNW 14 22 29.03 983 10 16.0934 0.01 0.254
8:35 am 08:35 Cloudy 41 5 41 5 100 100 NW 22 35 29.06 984 5 8.0467 0.02 0.508
8:55 am 08:55 Cloudy 41 5 41 5 100 100 NW 22 35 29.08 985 10 16.0934 0.02 0.508
9:15 am 09:15 Cloudy 39 4 39 4 100 100 NW 33 54 29.12 986 5 8.0467 0.01 0.254
9:35 am 09:35 Cloudy 37 3 37 3 100 100 NW 30 48 29.15 987 10 16.0934 0.01 0.254
10:15 am 10:15 Cloudy 37 3 34 1 87 87 WNW 18 30 29.21 989 10 16.0934 0 0
10:35 am 10:35 Cloudy 37 3 32 0 81 81 WNW 21 33 29.22 989 10 16.0934 0 0
10:55 am 10:55 Cloudy 39 4 32 0 75 75 WNW 23 37 29.25 990 10 16.0934 0 0
11:15 am 11:15 Mostly Cloudy 41 5 32 0 70 70 WNW 25 41 29.24 990 10 16.0934 0 0
11:35 am 11:35 Partly Cloudy 41 5 32 0 70 70 WNW 22 35 29.27 991 10 16.0934 0 0
11:55 am 11:55 Sunny 43 6 32 0 66 66 WNW 24 39 29.28 992 10 16.0934 0 0
12:15 pm 12:15 Mostly Cloudy 43 6 30 -1 61 61 WNW 21 33 29.31 993 10 16.0934 0 0
12:35 pm 12:35 Partly Cloudy 43 6 30 -1 61 61 WNW 21 33 29.32 993 10 16.0934 0 0
1:15 pm 13:15 Mostly Cloudy 41 5 28 -2 61 61 WNW 28 44 29.34 994 10 16.0934 0 0
1:35 pm 13:35 Mostly Cloudy 43 6 28 -2 57 57 WNW 36 57 29.36 994 10 16.0934 0 0
1:55 pm 13:55 Partly Cloudy 43 6 27 -3 53 53 NW 30 48 29.38 995 10 16.0934 0 0
2:15 pm 14:15 Partly Cloudy 41 5 27 -3 57 57 WNW 16 26 29.41 996 10 16.0934 0 0
2:35 pm 14:35 Cloudy 41 5 27 -3 57 57 NW 16 26 29.43 997 10 16.0934 0 0
2:55 pm 14:55 Cloudy 41 5 27 -3 57 57 WNW 21 33 29.45 997 10 16.0934 0 0
3:15 pm 15:15 Cloudy 41 5 25 -4 53 53 WNW 30 48 29.49 999 10 16.0934 0 0
3:35 pm 15:35 Cloudy 39 4 23 -5 52 52 WNW 23 37 29.53 1000 10 16.0934 0 0
4:15 pm 16:15 Cloudy 37 3 23 -5 56 56 WNW 25 41 29.58 1002 10 16.0934 0 0
4:35 pm 16:35 Cloudy 37 3 21 -6 52 52 WNW 30 48 29.59 1002 10 16.0934 0 0
4:55 pm 16:55 Cloudy 37 3 21 -6 52 52 WNW 25 41 29.62 1003 10 16.0934 0 0
5:15 pm 17:15 Cloudy 36 2 21 -6 56 56 WNW 23 37 29.63 1003 10 16.0934 0 0
5:35 pm 17:35 Cloudy 36 2 21 -6 56 56 W 17 28 29.65 1004 10 16.0934 0 0
5:55 pm 17:55 Cloudy 36 2 21 -6 56 56 WNW 15 24 29.67 1005 10 16.0934 0 0
6:15 pm 18:15 Cloudy 36 2 21 -6 56 56 NW 23 37 29.7 1006 10 16.0934 0 0
6:35 pm 18:35 Mostly Cloudy 34 1 23 -5 65 65 NW 18 30 29.72 1006 10 16.0934 0 0
7:15 pm 19:15 Mostly Cloudy 34 1 23 -5 65 65 W 16 26 29.76 1008 10 16.0934 0 0
7:35 pm 19:35 Cloudy 34 1 25 -4 70 70 WNW 21 33 29.77 1008 10 16.0934 0 0
7:55 pm 19:55 Cloudy 34 1 23 -5 65 65 WNW 17 28 29.79 1009 10 16.0934 0 0
8:15 pm 20:15 Cloudy 34 1 27 -3 75 75 NW 18 30 29.82 1010 5 8.0467 0 0
8:35 pm 20:35 Cloudy 32 0 28 -2 87 87 NW 16 26 29.83 1010 10 16.0934 0 0
8:55 pm 20:55 Cloudy 32 0 27 -3 80 80 WNW 12 19 29.85 1011 10 16.0934 0 0
9:35 pm 21:35 Partly Cloudy 34 1 25 -4 70 70 WNW 18 30 29.87 1012 10 16.0934 0 0
9:55 pm 21:55 Mostly Cloudy 34 1 27 -3 75 75 WNW 15 24 29.9 1013 10 16.0934 0 0
10:15 pm 22:15 Cloudy 32 0 27 -3 80 80 WNW 18 30 29.91 1013 10 16.0934 0 0
10:35 pm 22:35 Partly Cloudy 32 0 27 -3 80 80 WNW 15 24 29.93 1014 10 16.0934 0 0
10:55 pm 22:55 Clear 32 0 27 -3 80 80 W 14 22 29.94 1014 10 16.0934 0 0
11:15 pm 23:15 Partly Cloudy 32 0 27 -3 80 80 WNW 13 20 29.96 1015 10 16.0934 0 0
11:35 pm 23:35 Partly Cloudy 32 0 27 -3 80 80 WNW 15 24 29.97 1015 10 16.0934 0 0
11:55 pm 23:55 Clear 32 0 25 -4 75 75 WNW 15 24 29.98 1015 10 16.0934 0 0

Powered by AerisWeather